Simultaneous Nadir Overpasses (SNOs) Predictions

Prediction of SNOs between AQUA and METOP-B Satellite Orbit:

Table of predicted SNOs for the next 14.0 days since TLE Epoch: 4/24/2020
Index Date (AQUA) Time (AQUA) Lat,Lon (AQUA) SZA (AQUA ) Date (METOP-B) Time (METOP-B) Lat,Lon (METOP-B) SZA (METOP-B ) Distance(km) Time Diff (sec)
1 04/27/2020 02:44:42 73.70, 133.38 59.72 04/27/2020 02:43:30 73.65, 132.99 59.69 13.86 72
2 04/27/2020 03:34:09 -73.80, -59.19 120.19 04/27/2020 03:34:08 -73.82, -59.27 120.16 3.43 1
3 04/27/2020 04:23:39 73.91, 108.21 59.92 04/27/2020 04:24:46 73.92, 108.31 59.93 3.51 67
4 04/29/2020 22:18:58 73.80,-160.38 58.94 04/29/2020 22:17:50 73.77,-160.31 58.93 3.37 68
5 04/29/2020 23:08:24 -73.84, 7.17 121.03 04/29/2020 23:08:30 -73.85, 7.21 121.01 2.20 6
6 04/29/2020 23:57:55 74.00, 174.44 59.14 04/29/2020 23:59:07 74.00, 174.90 59.12 14.12 72
7 05/02/2020 17:53:12 73.79, -93.93 58.09 05/02/2020 17:52:12 73.80, -93.84 58.11 3.02 60
8 05/02/2020 18:42:38 -73.83, 73.63 121.88 05/02/2020 18:42:53 -73.83, 73.57 121.88 1.96 15
9 05/02/2020 19:32:15 74.31,-119.83 58.62 05/02/2020 19:33:23 74.32,-117.89 58.58 58.36 68
10 05/05/2020 13:27:26 73.80, -27.50 57.29 05/05/2020 13:26:35 73.77, -27.50 57.27 2.64 51
11 05/05/2020 14:16:52 -73.88, 139.96 122.64 05/05/2020 14:17:14 -73.86, 140.05 122.66 3.02 22
12 05/08/2020 09:01:39 73.81, 38.92 56.52 05/08/2020 09:00:56 73.79, 38.96 56.52 1.99 43
13 05/08/2020 09:51:05 -73.83,-153.49 123.47 05/08/2020 09:51:37 -73.84,-153.60 123.46 3.71 32




NCC Satellite Simultaneous Nadir Overpasses (SNOs) Prediction Service
